TimeEST,TemperatureF,Dew PointF,Humidity,Sea Level PressureIn,VisibilityMPH,Wind Direction,Wind SpeedMPH,Gust SpeedMPH,PrecipitationIn,Events,Conditions,WindDirDegrees,DateUTC
12:05 AM,30.2,30.2,100,30.45,7.0,Calm,Calm,-,N/A,Snow,Light Snow,0,2012-12-13 05:05:00
12:25 AM,30.2,30.2,100,30.44,7.0,Calm,Calm,-,N/A,Snow,Light Snow,0,2012-12-13 05:25:00
12:45 AM,30.2,30.2,100,30.43,7.0,Calm,Calm,-,N/A,Snow,Light Snow,0,2012-12-13 05:45:00
1:10 AM,28.4,28.4,100,30.44,7.0,Calm,Calm,-,N/A,,Clear,0,2012-12-13 06:10:00
1:30 AM,28.4,28.4,100,30.44,7.0,Calm,Calm,-,N/A,Snow,Light Snow,0,2012-12-13 06:30:00
1:50 AM,28.4,28.4,100,30.43,7.0,Calm,Calm,-,N/A,Snow,Light Snow,0,2012-12-13 06:50:00
2:10 AM,28.4,28.4,100,30.44,7.0,Calm,Calm,-,N/A,,Clear,0,2012-12-13 07:10:00
2:35 AM,28.4,28.4,100,30.45,5.0,Calm,Calm,-,N/A,Snow,Light Snow,0,2012-12-13 07:35:00
2:55 AM,28.4,28.4,100,30.46,7.0,Calm,Calm,-,N/A,Snow,Light Snow,0,2012-12-13 07:55:00
3:15 AM,28.4,28.4,100,30.46,5.0,Calm,Calm,-,N/A,,Clear,0,2012-12-13 08:15:00
3:35 AM,28.4,28.4,100,30.46,7.0,Calm,Calm,-,N/A,,Clear,0,2012-12-13 08:35:00
4:00 AM,28.4,28.4,100,30.45,5.0,Calm,Calm,-,N/A,,Clear,0,2012-12-13 09:00:00
4:20 AM,26.6,26.6,100,30.45,7.0,Calm,Calm,-,N/A,,Clear,0,2012-12-13 09:20:00
4:40 AM,28.4,28.4,100,30.46,7.0,Calm,Calm,-,N/A,,Clear,0,2012-12-13 09:40:00
5:00 AM,28.4,28.4,100,30.46,7.0,Calm,Calm,-,N/A,,Clear,0,2012-12-13 10:00:00
5:25 AM,26.6,26.6,100,30.47,7.0,Calm,Calm,-,N/A,,Clear,0,2012-12-13 10:25:00
5:45 AM,26.6,26.6,100,30.48,7.0,Calm,Calm,-,N/A,Snow,Light Snow,0,2012-12-13 10:45:00
5:50 AM,26.6,26.6,100,30.47,7.0,Calm,Calm,-,N/A,,Clear,0,2012-12-13 10:50:00
6:50 AM,24.8,24.8,100,30.48,10.0,Calm,Calm,-,N/A,,Clear,0,2012-12-13 11:50:00
7:50 AM,21.2,21.2,100,30.48,10.0,Calm,Calm,-,N/A,,Clear,0,2012-12-13 12:50:00
8:50 AM,32.0,32.0,100,30.50,10.0,Calm,Calm,-,N/A,,Clear,0,2012-12-13 13:50:00
9:50 AM,37.4,30.2,75,30.50,10.0,NNE,6.9,-,N/A,,Clear,20,2012-12-13 14:50:00
10:50 AM,44.6,33.8,66,30.50,10.0,NNE,5.8,-,N/A,,Clear,20,2012-12-13 15:50:00
11:50 AM,48.2,32.0,54,30.47,10.0,NNE,5.8,-,N/A,,Clear,20,2012-12-13 16:50:00
12:50 PM,51.8,28.4,41,30.44,10.0,North,4.6,-,N/A,,Clear,350,2012-12-13 17:50:00
1:50 PM,50.0,30.2,47,30.43,10.0,Calm,Calm,-,N/A,,Clear,0,2012-12-13 18:50:00
2:55 PM,50.0,28.4,43,30.41,10.0,Calm,Calm,-,N/A,,Clear,0,2012-12-13 19:55:00
3:55 PM,46.4,28.4,50,30.41,10.0,Calm,Calm,-,N/A,,Clear,0,2012-12-13 20:55:00
4:54 PM,39.2,26.6,61,30.41,10.0,Calm,Calm,-,N/A,,Clear,0,2012-12-13 21:54:00
7:55 PM,28.4,28.4,100,30.40,10.0,Calm,Calm,-,N/A,,Clear,0,2012-12-14 00:55:00
8:15 PM,28.4,28.4,100,30.41,10.0,Calm,Calm,-,N/A,,Clear,0,2012-12-14 01:15:00
8:35 PM,26.6,26.6,100,30.40,10.0,Calm,Calm,-,N/A,,Clear,0,2012-12-14 01:35:00
8:45 PM,28.4,28.4,100,30.40,10.0,Calm,Calm,-,N/A,,Clear,0,2012-12-14 01:45:00
8:55 PM,28.4,28.4,100,30.39,10.0,Calm,Calm,-,N/A,,Clear,0,2012-12-14 01:55:00
9:20 PM,26.6,26.6,100,30.38,10.0,Calm,Calm,-,N/A,,Clear,0,2012-12-14 02:20:00
9:40 PM,26.6,26.6,100,30.38,10.0,Calm,Calm,-,N/A,,Clear,0,2012-12-14 02:40:00
10:00 PM,26.6,26.6,100,30.38,10.0,ESE,3.5,-,N/A,,Clear,120,2012-12-14 03:00:00
10:20 PM,26.6,26.6,100,30.38,10.0,Calm,Calm,-,N/A,,Clear,0,2012-12-14 03:20:00
10:45 PM,24.8,24.8,100,30.38,10.0,Calm,Calm,-,N/A,,Clear,0,2012-12-14 03:45:00
11:05 PM,24.8,24.8,100,30.38,10.0,Calm,Calm,-,N/A,,Clear,0,2012-12-14 04:05:00
11:25 PM,23.0,23.0,100,30.38,10.0,Calm,Calm,-,N/A,,Clear,0,2012-12-14 04:25:00
11:45 PM,24.8,24.8,100,30.38,7.0,Calm,Calm,-,N/A,,Clear,0,2012-12-14 04:45:00